Time,TemperatureF,DewpointF,PressureIn,WindDirection,WindDirectionDegrees,WindSpeedMPH,WindSpeedGustMPH,Humidity,HourlyPrecipIn,Conditions,Clouds,dailyrainin,SoftwareType,DateUTC
2013-01-28 00:01:00,38.0,38.0,-100.00,WSW,245,8.0,17.0,99,-99.99,,,-99.99,,2013-01-28 08:01:00,
2013-01-28 00:11:00,38.0,37.0,-100.00,WSW,241,8.0,14.0,98,-99.99,,,-99.99,,2013-01-28 08:11:00,
2013-01-28 00:21:00,38.0,38.0,-100.00,WSW,254,8.0,14.0,99,-99.99,,,-99.99,,2013-01-28 08:21:00,
2013-01-28 00:31:00,38.0,37.0,-100.00,WSW,244,9.0,15.0,97,-99.99,,,-99.99,,2013-01-28 08:31:00,
2013-01-28 00:42:00,38.0,36.0,-100.00,WSW,250,9.0,17.0,93,-99.99,,,-99.99,,2013-01-28 08:42:00,
2013-01-28 00:52:00,38.0,36.0,-100.00,WSW,242,9.0,15.0,94,-99.99,,,-99.99,,2013-01-28 08:52:00,
2013-01-28 01:01:00,38.0,37.0,-100.00,WSW,246,10.0,19.0,96,-99.99,,,-99.99,,2013-01-28 09:01:00,
2013-01-28 01:11:00,38.0,37.0,-100.00,WSW,243,8.0,15.0,97,-99.99,,,-99.99,,2013-01-28 09:11:00,
2013-01-28 01:21:00,38.0,37.0,-100.00,WSW,239,9.0,17.0,98,-99.99,,,-99.99,,2013-01-28 09:21:00,
2013-01-28 01:31:00,38.0,37.0,-100.00,SW,235,9.0,14.0,98,-99.99,,,-99.99,,2013-01-28 09:31:00,
2013-01-28 01:41:00,38.0,37.0,-100.00,WSW,240,10.0,16.0,98,-99.99,,,-99.99,,2013-01-28 09:41:00,
2013-01-28 01:51:00,38.0,38.0,-100.00,WSW,239,9.0,16.0,99,-99.99,,,-99.99,,2013-01-28 09:51:00,
2013-01-28 02:01:00,38.0,38.0,-100.00,WSW,239,9.0,18.0,99,-99.99,,,-99.99,,2013-01-28 10:01:00,
2013-01-28 02:11:00,38.0,37.0,-100.00,WSW,238,8.0,16.0,98,-99.99,,,-99.99,,2013-01-28 10:11:00,
2013-01-28 02:21:00,38.0,37.0,-100.00,WSW,238,9.0,16.0,98,-99.99,,,-99.99,,2013-01-28 10:21:00,
2013-01-28 02:31:00,38.0,37.0,-100.00,WSW,237,9.0,14.0,97,-99.99,,,-99.99,,2013-01-28 10:31:00,
2013-01-28 02:41:00,38.0,38.0,-100.00,SW,236,8.0,13.0,99,-99.99,,,-99.99,,2013-01-28 10:41:00,
2013-01-28 02:51:00,38.0,38.0,-100.00,WSW,239,7.0,14.0,99,-99.99,,,-99.99,,2013-01-28 10:51:00,
2013-01-28 03:01:00,37.0,37.0,-100.00,WSW,249,7.0,12.0,100,-99.99,,,-99.99,,2013-01-28 11:01:00,
2013-01-28 03:11:00,37.0,37.0,-100.00,West,260,9.0,15.0,100,-99.99,,,-99.99,,2013-01-28 11:11:00,
2013-01-28 03:21:00,38.0,38.0,-100.00,WSW,257,9.0,17.0,100,-99.99,,,-99.99,,2013-01-28 11:21:00,
2013-01-28 03:32:00,38.0,38.0,-100.00,West,260,8.0,15.0,100,-99.99,,,-99.99,,2013-01-28 11:32:00,
2013-01-28 03:42:00,38.0,38.0,-100.00,WSW,256,8.0,14.0,100,-99.99,,,-99.99,,2013-01-28 11:42:00,
2013-01-28 03:52:00,38.0,38.0,-100.00,WSW,257,7.0,12.0,99,-99.99,,,-99.99,,2013-01-28 11:52:00,
2013-01-28 04:03:00,38.0,38.0,-100.00,West,260,7.0,15.0,100,-99.99,,,-99.99,,2013-01-28 12:03:00,
2013-01-28 04:11:00,38.0,38.0,-100.00,WSW,247,6.0,12.0,99,-99.99,,,-99.99,,2013-01-28 12:11:00,
2013-01-28 04:22:00,38.0,38.0,-100.00,WSW,240,8.0,17.0,99,-99.99,,,-99.99,,2013-01-28 12:22:00,
2013-01-28 04:32:00,38.0,38.0,-100.00,SW,235,9.0,15.0,99,-99.99,,,-99.99,,2013-01-28 12:32:00,
2013-01-28 04:42:00,38.0,38.0,-100.00,SW,234,7.0,12.0,99,-99.99,,,-99.99,,2013-01-28 12:42:00,
2013-01-28 04:52:00,38.0,38.0,-100.00,WSW,240,7.0,14.0,100,-99.99,,,-99.99,,2013-01-28 12:52:00,
2013-01-28 05:02:00,38.0,38.0,-100.00,SW,235,7.0,14.0,99,-99.99,,,-99.99,,2013-01-28 13:02:00,
2013-01-28 05:11:00,38.0,38.0,-100.00,WSW,257,7.0,18.0,100,-99.99,,,-99.99,,2013-01-28 13:11:00,
2013-01-28 05:22:00,37.0,37.0,-100.00,West,271,9.0,22.0,100,-99.99,,,-99.99,,2013-01-28 13:22:00,
2013-01-28 05:32:00,37.0,37.0,-100.00,West,266,7.0,14.0,100,-99.99,,,-99.99,,2013-01-28 13:32:00,
2013-01-28 05:42:00,37.0,37.0,-100.00,West,266,7.0,14.0,100,-99.99,,,-99.99,,2013-01-28 13:42:00,
2013-01-28 05:52:00,37.0,37.0,-100.00,West,271,6.0,13.0,100,-99.99,,,-99.99,,2013-01-28 13:52:00,
2013-01-28 06:02:00,37.0,37.0,-100.00,West,270,5.0,11.0,100,-99.99,,,-99.99,,2013-01-28 14:02:00,
2013-01-28 06:11:00,37.0,37.0,-100.00,West,268,5.0,10.0,100,-99.99,,,-99.99,,2013-01-28 14:11:00,
2013-01-28 06:22:00,37.0,37.0,-100.00,West,260,6.0,12.0,100,-99.99,,,-99.99,,2013-01-28 14:22:00,
2013-01-28 06:32:00,37.0,37.0,-100.00,West,269,9.0,15.0,100,-99.99,,,-99.99,,2013-01-28 14:32:00,
2013-01-28 06:42:00,37.0,37.0,-100.00,West,271,7.0,12.0,100,-99.99,,,-99.99,,2013-01-28 14:42:00,
2013-01-28 06:52:00,37.0,37.0,-100.00,West,269,7.0,13.0,100,-99.99,,,-99.99,,2013-01-28 14:52:00,
2013-01-28 07:02:00,37.0,37.0,-100.00,West,260,6.0,13.0,100,-99.99,,,-99.99,,2013-01-28 15:02:00,
2013-01-28 07:12:00,38.0,38.0,-100.00,West,266,7.0,13.0,100,-99.99,,,-99.99,,2013-01-28 15:12:00,
2013-01-28 07:22:00,37.0,37.0,-100.00,West,261,8.0,14.0,100,-99.99,,,-99.99,,2013-01-28 15:22:00,
2013-01-28 07:32:00,38.0,38.0,-100.00,West,271,6.0,14.0,100,-99.99,,,-99.99,,2013-01-28 15:32:00,
2013-01-28 07:42:00,37.0,37.0,-100.00,West,270,8.0,15.0,100,-99.99,,,-99.99,,2013-01-28 15:42:00,
2013-01-28 07:52:00,37.0,37.0,-100.00,West,264,8.0,15.0,99,-99.99,,,-99.99,,2013-01-28 15:52:00,
2013-01-28 08:03:00,37.0,37.0,-100.00,West,264,7.0,12.0,99,-99.99,,,-99.99,,2013-01-28 16:03:00,
2013-01-28 08:12:00,38.0,38.0,-100.00,West,267,6.0,15.0,100,-99.99,,,-99.99,,2013-01-28 16:12:00,
2013-01-28 08:21:00,38.0,38.0,-100.00,West,268,5.0,14.0,100,-99.99,,,-99.99,,2013-01-28 16:21:00,
2013-01-28 08:30:00,38.0,37.0,-100.00,WSW,240,6.0,9.0,95,-99.99,,,-99.99,,2013-01-28 16:30:00,
2013-01-28 08:32:00,38.0,38.0,-100.00,West,271,5.0,10.0,100,-99.99,,,-99.99,,2013-01-28 16:32:00,
2013-01-28 08:42:00,38.0,38.0,-100.00,WSW,254,5.0,10.0,100,-99.99,,,-99.99,,2013-01-28 16:42:00,
2013-01-28 08:52:00,38.0,38.0,-100.00,WSW,243,5.0,9.0,99,-99.99,,,-99.99,,2013-01-28 16:52:00,
2013-01-28 09:01:00,38.0,37.0,-100.00,WSW,240,6.0,9.0,95,-99.99,,,-99.99,,2013-01-28 17:01:00,
2013-01-28 09:11:00,38.0,37.0,-100.00,WSW,240,6.0,9.0,95,-99.99,,,-99.99,,2013-01-28 17:11:00,
2013-01-28 09:22:00,38.0,37.0,-100.00,WSW,240,6.0,9.0,95,-99.99,,,-99.99,,2013-01-28 17:22:00,
2013-01-28 10:02:00,40.0,38.0,-100.00,West,272,5.0,10.0,91,-99.99,,,-99.99,,2013-01-28 18:02:00,
2013-01-28 10:12:00,40.0,36.0,-100.00,West,275,7.0,13.0,84,-99.99,,,-99.99,,2013-01-28 18:12:00,
2013-01-28 10:23:00,41.0,35.0,-100.00,West,273,7.0,14.0,78,-99.99,,,-99.99,,2013-01-28 18:23:00,
2013-01-28 10:33:00,40.0,33.0,-100.00,West,272,7.0,13.0,76,-99.99,,,-99.99,,2013-01-28 18:33:00,
2013-01-28 10:42:00,40.0,32.0,-100.00,West,274,5.0,10.0,73,-99.99,,,-99.99,,2013-01-28 18:42:00,
2013-01-28 10:52:00,42.0,32.0,-100.00,West,278,6.0,12.0,67,-99.99,,,-99.99,,2013-01-28 18:52:00,
2013-01-28 11:01:00,41.0,29.0,-100.00,West,273,7.0,14.0,63,-99.99,,,-99.99,,2013-01-28 19:01:00,
2013-01-28 11:12:00,41.0,31.0,-100.00,West,276,6.0,12.0,67,-99.99,,,-99.99,,2013-01-28 19:12:00,
2013-01-28 11:22:00,42.0,33.0,-100.00,WSW,258,6.0,11.0,71,-99.99,,,-99.99,,2013-01-28 19:22:00,
2013-01-28 11:32:00,42.0,33.0,-100.00,West,261,8.0,17.0,70,-99.99,,,-99.99,,2013-01-28 19:32:00,
2013-01-28 11:42:00,42.0,33.0,-100.00,WSW,257,9.0,14.0,71,-99.99,,,-99.99,,2013-01-28 19:42:00,
2013-01-28 11:52:00,43.0,34.0,-100.00,WSW,256,8.0,13.0,71,-99.99,,,-99.99,,2013-01-28 19:52:00,
2013-01-28 12:02:00,43.0,33.0,-100.00,WSW,256,9.0,15.0,68,-99.99,,,-99.99,,2013-01-28 20:02:00,
2013-01-28 12:11:00,42.0,33.0,-100.00,WSW,252,9.0,16.0,70,-99.99,,,-99.99,,2013-01-28 20:11:00,
2013-01-28 12:21:00,42.0,34.0,-100.00,West,264,10.0,19.0,74,-99.99,,,-99.99,,2013-01-28 20:21:00,
2013-01-28 12:32:00,43.0,35.0,-100.00,WSW,257,10.0,16.0,72,-99.99,,,-99.99,,2013-01-28 20:32:00,
2013-01-28 12:42:00,42.0,33.0,-100.00,WSW,245,9.0,14.0,71,-99.99,,,-99.99,,2013-01-28 20:42:00,
2013-01-28 12:52:00,41.0,34.0,-100.00,WSW,257,7.0,12.0,75,-99.99,,,-99.99,,2013-01-28 20:52:00,
2013-01-28 13:02:00,42.0,35.0,-100.00,West,259,9.0,15.0,76,-99.99,,,-99.99,,2013-01-28 21:02:00,
2013-01-28 13:11:00,43.0,34.0,-100.00,WSW,252,10.0,16.0,69,-99.99,,,-99.99,,2013-01-28 21:11:00,
2013-01-28 13:22:00,44.0,34.0,-100.00,WSW,251,9.0,16.0,68,-99.99,,,-99.99,,2013-01-28 21:22:00,
2013-01-28 13:33:00,43.0,35.0,-100.00,WSW,256,10.0,18.0,73,-99.99,,,-99.99,,2013-01-28 21:33:00,
2013-01-28 13:42:00,43.0,35.0,-100.00,WSW,258,11.0,20.0,73,-99.99,,,-99.99,,2013-01-28 21:42:00,
2013-01-28 13:52:00,43.0,34.0,-100.00,WSW,250,12.0,20.0,70,-99.99,,,-99.99,,2013-01-28 21:52:00,
2013-01-28 14:01:00,42.0,34.0,-100.00,WSW,255,11.0,21.0,72,-99.99,,,-99.99,,2013-01-28 22:01:00,
2013-01-28 14:11:00,41.0,34.0,-100.00,West,263,8.0,16.0,76,-99.99,,,-99.99,,2013-01-28 22:11:00,
2013-01-28 14:22:00,41.0,34.0,-100.00,West,269,9.0,14.0,76,-99.99,,,-99.99,,2013-01-28 22:22:00,
2013-01-28 14:32:00,42.0,34.0,-100.00,WNW,293,4.0,9.0,72,-99.99,,,-99.99,,2013-01-28 22:32:00,
2013-01-28 14:42:00,42.0,34.0,-100.00,WNW,293,4.0,9.0,72,-99.99,,,-99.99,,2013-01-28 22:42:00,
2013-01-28 14:52:00,42.0,26.0,-100.00,WNW,288,5.0,10.0,53,-99.99,,,-99.99,,2013-01-28 22:52:00,
2013-01-28 15:01:00,41.0,25.0,-100.00,West,277,7.0,14.0,53,-99.99,,,-99.99,,2013-01-28 23:01:00,
2013-01-28 15:11:00,42.0,24.0,-100.00,West,273,9.0,17.0,49,-99.99,,,-99.99,,2013-01-28 23:11:00,
2013-01-28 15:22:00,41.0,26.0,-100.00,West,274,8.0,13.0,54,-99.99,,,-99.99,,2013-01-28 23:22:00,
2013-01-28 15:32:00,42.0,27.0,-100.00,WNW,282,6.0,14.0,55,-99.99,,,-99.99,,2013-01-28 23:32:00,
2013-01-28 15:42:00,42.0,27.0,-100.00,WNW,282,6.0,14.0,55,-99.99,,,-99.99,,2013-01-28 23:42:00,
2013-01-28 15:52:00,43.0,25.0,-100.00,West,275,9.0,16.0,49,-99.99,,,-99.99,,2013-01-28 23:52:00,
2013-01-28 16:02:00,43.0,27.0,-100.00,West,274,7.0,13.0,53,-99.99,,,-99.99,,2013-01-29 00:02:00,
2013-01-28 16:11:00,42.0,25.0,-100.00,WNW,297,4.0,9.0,50,-99.99,,,-99.99,,2013-01-29 00:11:00,
2013-01-28 16:21:00,43.0,25.0,-100.00,WNW,289,5.0,12.0,49,-99.99,,,-99.99,,2013-01-29 00:21:00,
2013-01-28 16:32:00,41.0,26.0,-100.00,WNW,282,6.0,12.0,55,-99.99,,,-99.99,,2013-01-29 00:32:00,
2013-01-28 16:41:00,41.0,27.0,-100.00,West,270,7.0,12.0,58,-99.99,,,-99.99,,2013-01-29 00:41:00,
2013-01-28 16:52:00,41.0,27.0,-100.00,West,273,8.0,14.0,57,-99.99,,,-99.99,,2013-01-29 00:52:00,
2013-01-28 17:01:00,41.0,28.0,-100.00,West,275,8.0,14.0,59,-99.99,,,-99.99,,2013-01-29 01:01:00,
2013-01-28 17:11:00,40.0,28.0,-100.00,West,274,8.0,15.0,63,-99.99,,,-99.99,,2013-01-29 01:11:00,
2013-01-28 17:22:00,40.0,31.0,-100.00,West,277,8.0,15.0,69,-99.99,,,-99.99,,2013-01-29 01:22:00,
2013-01-28 17:32:00,40.0,31.0,-100.00,West,277,8.0,15.0,69,-99.99,,,-99.99,,2013-01-29 01:32:00,
2013-01-28 17:42:00,39.0,32.0,-100.00,West,276,6.0,11.0,75,-99.99,,,-99.99,,2013-01-29 01:42:00,
2013-01-28 17:52:00,39.0,32.0,-100.00,West,279,5.0,10.0,77,-99.99,,,-99.99,,2013-01-29 01:52:00,
2013-01-28 18:02:00,39.0,33.0,-100.00,West,275,5.0,9.0,78,-99.99,,,-99.99,,2013-01-29 02:02:00,
2013-01-28 18:11:00,39.0,33.0,-100.00,West,278,4.0,7.0,79,-99.99,,,-99.99,,2013-01-29 02:11:00,
2013-01-28 18:21:00,38.0,32.0,-100.00,West,271,4.0,8.0,80,-99.99,,,-99.99,,2013-01-29 02:21:00,
2013-01-28 18:32:00,38.0,33.0,-100.00,West,266,3.0,8.0,82,-99.99,,,-99.99,,2013-01-29 02:32:00,
2013-01-28 18:41:00,38.0,33.0,-100.00,West,271,5.0,10.0,83,-99.99,,,-99.99,,2013-01-29 02:41:00,
2013-01-28 18:52:00,38.0,34.0,-100.00,West,270,5.0,8.0,84,-99.99,,,-99.99,,2013-01-29 02:52:00,
2013-01-28 19:02:00,38.0,34.0,-100.00,West,274,5.0,7.0,84,-99.99,,,-99.99,,2013-01-29 03:02:00,
2013-01-28 19:11:00,38.0,34.0,-100.00,West,280,4.0,7.0,86,-99.99,,,-99.99,,2013-01-29 03:11:00,
2013-01-28 19:21:00,38.0,34.0,-100.00,West,276,5.0,9.0,86,-99.99,,,-99.99,,2013-01-29 03:21:00,
2013-01-28 19:31:00,38.0,34.0,-100.00,WNW,284,4.0,9.0,87,-99.99,,,-99.99,,2013-01-29 03:31:00,
2013-01-28 19:41:00,38.0,34.0,-100.00,WNW,283,4.0,10.0,87,-99.99,,,-99.99,,2013-01-29 03:41:00,
2013-01-28 19:52:00,37.0,34.0,-100.00,WNW,285,4.0,11.0,88,-99.99,,,-99.99,,2013-01-29 03:52:00,
2013-01-28 20:01:00,37.0,34.0,-100.00,WNW,283,4.0,8.0,88,-99.99,,,-99.99,,2013-01-29 04:01:00,
2013-01-28 20:11:00,37.0,34.0,-100.00,WNW,283,4.0,8.0,88,-99.99,,,-99.99,,2013-01-29 04:11:00,
2013-01-28 20:21:00,37.0,34.0,-100.00,WNW,283,4.0,8.0,88,-99.99,,,-99.99,,2013-01-29 04:21:00,
2013-01-28 20:32:00,37.0,34.0,-100.00,NE,47,1.0,3.0,89,-99.99,,,-99.99,,2013-01-29 04:32:00,
2013-01-28 20:41:00,37.0,34.0,-100.00,NE,47,1.0,3.0,89,-99.99,,,-99.99,,2013-01-29 04:41:00,
2013-01-28 20:51:00,35.0,33.0,-100.00,ESE,102,2.0,3.0,91,-99.99,,,-99.99,,2013-01-29 04:51:00,
2013-01-28 21:03:00,35.0,33.0,-100.00,ENE,62,2.0,4.0,92,-99.99,,,-99.99,,2013-01-29 05:03:00,
2013-01-28 21:12:00,36.0,34.0,-100.00,NE,47,1.0,5.0,91,-99.99,,,-99.99,,2013-01-29 05:12:00,
2013-01-28 21:21:00,35.0,33.0,-100.00,NW,305,2.0,3.0,92,-99.99,,,-99.99,,2013-01-29 05:21:00,
2013-01-28 21:31:00,35.0,33.0,-100.00,NW,314,2.0,4.0,93,-99.99,,,-99.99,,2013-01-29 05:31:00,
2013-01-28 21:42:00,34.0,32.0,-100.00,NW,304,1.0,3.0,93,-99.99,,,-99.99,,2013-01-29 05:42:00,
2013-01-28 21:52:00,33.0,32.0,-100.00,North,6,1.0,3.0,96,-99.99,,,-99.99,,2013-01-29 05:52:00,
2013-01-28 22:01:00,33.0,32.0,-100.00,North,6,1.0,3.0,96,-99.99,,,-99.99,,2013-01-29 06:01:00,
2013-01-28 22:11:00,32.0,32.0,-100.00,SW,228,1.0,2.0,98,-99.99,,,-99.99,,2013-01-29 06:11:00,
2013-01-28 22:21:00,32.0,32.0,-100.00,West,272,2.0,3.0,99,-99.99,,,-99.99,,2013-01-29 06:21:00,
2013-01-28 22:31:00,33.0,32.0,-100.00,NNW,337,1.0,2.0,98,-99.99,,,-99.99,,2013-01-29 06:31:00,
2013-01-28 22:41:00,33.0,32.0,-100.00,NNW,337,1.0,2.0,98,-99.99,,,-99.99,,2013-01-29 06:41:00,
2013-01-28 22:52:00,31.0,31.0,-100.00,NNE,18,1.0,2.0,98,-99.99,,,-99.99,,2013-01-29 06:52:00,
2013-01-28 23:01:00,31.0,31.0,-100.00,NW,314,1.0,3.0,99,-99.99,,,-99.99,,2013-01-29 07:01:00,
2013-01-28 23:11:00,31.0,31.0,-100.00,WNW,283,2.0,4.0,99,-99.99,,,-99.99,,2013-01-29 07:11:00,
2013-01-28 23:21:00,31.0,31.0,-100.00,West,270,2.0,3.0,100,-99.99,,,-99.99,,2013-01-29 07:21:00,
2013-01-28 23:31:00,31.0,31.0,-100.00,West,277,0.0,1.0,100,-99.99,,,-99.99,,2013-01-29 07:31:00,
2013-01-28 23:41:00,31.0,31.0,-100.00,West,276,1.0,3.0,100,-99.99,,,-99.99,,2013-01-29 07:41:00,
2013-01-28 23:51:00,31.0,31.0,-100.00,NW,322,1.0,2.0,100,-99.99,,,-99.99,,2013-01-29 07:51:00,